Notices

What's New in latest Release from April 7th, 2021:

- Updated Glossary, including Speed of Maximum Gust, and Total Hourly Precipitation

- Updated national and regional climate services offices contacts and prices information

- Addition of station inventory lists for 1981-2010, 1971-2000, and 1961-1990 Normals.

If you haven't already, please take our survey and provide feedback about our website: https://eccc.sondage-survey.ca/f/LanguageSelection.aspx?s=442ca660-fcf1-47c0-95a9-59707d6fd709

Hourly Data Report for February 19, 2017

TORONTO INTL A
ONTARIO

43°40'36.000" N
79°37'50.000" W
173.40 m
6158731
71624
YYZ

Download Data

Hourly Data (February 2017)
Hourly Data Report for February 19, 2017
TIME
LST
Temp Definition
°C
Dew Point Definition
°C
Rel Hum Definition
%
Precip. Amount Definition
mm

Wind Dir Definition
10's deg

Wind Spd Definition
km/h
Visibility Definition
km
Stn Press Definition
kPa
Hmdx Definition


Wind Chill Definition


Weather Definition


00:00 5.4 1.2 74   27 11 24.1 98.48     LegendNANA
01:00 4.0 0.9 80   28 12 24.1 98.51     Mainly Clear
02:00 3.8 0.7 80   29 13 24.1 98.56     LegendNANA
03:00 5.8 0.8 70   31 25 24.1 98.66     LegendNANA
04:00 4.3 0.5 76   29 19 24.1 98.70     Mostly Cloudy
05:00 4.1 0.4 77   29 17 24.1 98.76     LegendNANA
06:00 3.7 0.1 77   29 12 24.1 98.85     LegendNANA
07:00 3.5 -0.2 77   28 16 24.1 98.92     Mainly Clear
08:00 3.8 0.1 77   26 14 24.1 99.01     LegendNANA
09:00 6.0 1.2 71   27 21 24.1 99.06     LegendNANA
10:00 8.5 1.7 62   27 28 24.1 99.11     Mainly Clear
11:00 10.1 2.0 57   27 24 24.1 99.12     LegendNANA
12:00 11.0 1.6 52   28 27 24.1 99.15     LegendNANA
13:00 11.1 1.1 50   28 36 24.1 99.15     Mainly Clear
14:00 10.9 1.2 51   29 34 24.1 99.18     LegendNANA
15:00 10.9 1.2 51   29 29 24.1 99.22     LegendNANA
16:00 10.2 0.6 51   29 32 24.1 99.34     Mainly Clear
17:00 7.7 0.2 59   1 25 24.1 99.48     LegendNANA
18:00 6.5 -0.5 61   36 14 24.1 99.60     LegendNANA
19:00 6.0 -0.7 62   34 15 24.1 99.72     Clear
20:00 3.9 -1.5 68   33 7 24.1 99.80     LegendNANA
21:00 4.3 -1.7 65   35 13 24.1 99.84     LegendNANA
22:00 3.2 -1.9 69   31 13 24.1 99.95     Clear
23:00 2.2 -2.1 73   30 10 24.1 99.99     LegendNANA

Notes on Data Quality.

Legend

  • E = Estimated
  • M = Missing
  • NA = Not Available*
  • [empty] = Indicates an unobserved value
Date modified: